When you browse on this site, cookies collect data to enhance your experience and personalize the content and advertising you see.
Visit our Privacy Policy to learn more. By continuing to use the site, you agree to this use of cookies and data.
  • In Österreich
  • Länderverzeichnis
  • Für 7 Tage
  • Wassertemperatur
  • Wetterkarte
  • News
  • Widgets
  • user-avatar
    Anmelden

    Stündliche Wetter La Rioja

    Heute, 1 Juni, Montag

    Zeit Temperatur Niederschläge Wind Luftdruck Luftfeuchtigkeit
    00:00 +7°C° 0 mm 0 m/S 719 mmHg 58%
    01:00 +7°C° 0 mm 0 m/S 719 mmHg 59%
    02:00 +7°C° 0 mm 0 m/S 719 mmHg 66%
    03:00 +6°C° 0 mm 0 m/S 719 mmHg 67%
    04:00 +7°C° 0 mm 1 m/S 719 mmHg 67%
    05:00 +7°C° 0 mm 1 m/S 719 mmHg 68%
    06:00 +8°C° 0 mm 1 m/S 719 mmHg 65%
    07:00 +9°C° 0 mm 1 m/S 720 mmHg 63%
    08:00 +10°C° 0 mm 1 m/S 720 mmHg 60%
    09:00 +12°C° 0 mm 1 m/S 720 mmHg 53%
    10:00 +14°C° 0 mm 1 m/S 720 mmHg 47%
    11:00 +15°C° 0 mm 1 m/S 720 mmHg 40%
    12:00 +16°C° 0 mm 1 m/S 719 mmHg 38%
    13:00 +18°C° 0 mm 1 m/S 718 mmHg 37%
    14:00 +19°C° 0 mm 1 m/S 718 mmHg 35%
    15:00 +19°C° 0 mm 1 m/S 717 mmHg 36%
    16:00 +18°C° 0 mm 1 m/S 717 mmHg 38%
    17:00 +18°C° 0 mm 1 m/S 717 mmHg 40%
    18:00 +15°C° 0 mm 1 m/S 717 mmHg 48%
    19:00 +13°C° 0 mm 1 m/S 717 mmHg 56%
    20:00 +11°C° 0 mm 1 m/S 717 mmHg 65%
    21:00 +10°C° 0 mm 1 m/S 717 mmHg 64%
    22:00 +10°C° 0 mm 1 m/S 718 mmHg 64%
    23:00 +9°C° 0 mm 1 m/S 718 mmHg 64%

    Morgen, 2 Juni, Dienstag

    Zeit Temperatur Niederschläge Wind Luftdruck Luftfeuchtigkeit
    00:00 +9°C° 0 mm 1 m/S 717 mmHg 65%
    01:00 +9°C° 0 mm 1 m/S 717 mmHg 65%
    02:00 +9°C° 0 mm 1 m/S 717 mmHg 66%
    03:00 +9°C° 0 mm 1 m/S 716 mmHg 67%
    04:00 +8°C° 0 mm 1 m/S 716 mmHg 69%
    05:00 +8°C° 0 mm 1 m/S 716 mmHg 70%
    06:00 +8°C° 0 mm 1 m/S 716 mmHg 67%
    07:00 +9°C° 0 mm 1 m/S 716 mmHg 65%
    08:00 +9°C° 0 mm 1 m/S 716 mmHg 62%
    09:00 +10°C° 0 mm 2 m/S 716 mmHg 55%
    10:00 +14°C° 0 mm 2 m/S 716 mmHg 47%
    11:00 +16°C° 0 mm 2 m/S 716 mmHg 40%
    12:00 +17°C° 0 mm 2 m/S 715 mmHg 38%
    13:00 +18°C° 0 mm 2 m/S 714 mmHg 36%
    14:00 +19°C° 0 mm 2 m/S 713 mmHg 35%
    15:00 +19°C° 0 mm 1 m/S 712 mmHg 38%
    16:00 +18°C° 0 mm 1 m/S 712 mmHg 40%
    17:00 +18°C° 0 mm 1 m/S 711 mmHg 43%
    18:00 +15°C° 0 mm 1 m/S 711 mmHg 47%
    19:00 +14°C° 0 mm 1 m/S 711 mmHg 51%
    20:00 +12°C° 0 mm 1 m/S 711 mmHg 56%
    21:00 +12°C° 0 mm 1 m/S 711 mmHg 59%
    22:00 +11°C° 0 mm 1 m/S 711 mmHg 62%
    23:00 +10°C° 0 mm 1 m/S 710 mmHg 65%

    übermorgen, 3 Juni, Mittwoch

    Zeit Temperatur Niederschläge Wind Luftdruck Luftfeuchtigkeit
    00:00 +10°C° 0 mm 1 m/S 710 mmHg 68%
    01:00 +9°C° 0 mm 1 m/S 709 mmHg 71%
    02:00 +8°C° 0 mm 1 m/S 709 mmHg 73%
    03:00 +8°C° 0 mm 1 m/S 709 mmHg 74%
    04:00 +8°C° 0 mm 1 m/S 709 mmHg 74%
    05:00 +8°C° 0 mm 1 m/S 708 mmHg 74%
    06:00 +8°C° 0 mm 1 m/S 709 mmHg 70%
    07:00 +9°C° 0 mm 1 m/S 709 mmHg 67%
    08:00 +10°C° 0 mm 1 m/S 710 mmHg 63%
    09:00 +12°C° 0 mm 2 m/S 710 mmHg 56%
    10:00 +13°C° 0 mm 3 m/S 711 mmHg 50%
    11:00 +15°C° 0 mm 4 m/S 711 mmHg 44%
    12:00 +16°C° 0 mm 5 m/S 711 mmHg 43%
    13:00 +16°C° 0 mm 5 m/S 711 mmHg 43%
    14:00 +17°C° 0 mm 6 m/S 711 mmHg 42%
    15:00 +16°C° 0 mm 7 m/S 712 mmHg 46%
    16:00 +16°C° 0 mm 7 m/S 713 mmHg 49%
    17:00 +15°C° 0 mm 8 m/S 713 mmHg 53%
    18:00 +13°C° 0.4 mm 8 m/S 715 mmHg 60%
    19:00 +11°C° 0.4 mm 8 m/S 716 mmHg 68%
    20:00 +9°C° 0.4 mm 8 m/S 717 mmHg 76%
    21:00 +9°C° 0.3 mm 7 m/S 718 mmHg 79%
    22:00 +8°C° 0.3 mm 7 m/S 718 mmHg 82%
    23:00 +8°C° 0.3 mm 6 m/S 719 mmHg 85%

    4 Juni, Donnerstag

    Zeit Temperatur Niederschläge Wind Luftdruck Luftfeuchtigkeit
    00:00 +8°C° 0.5 mm 5 m/S 719 mmHg 87%
    01:00 +8°C° 0.5 mm 5 m/S 719 mmHg 89%
    02:00 +8°C° 0.5 mm 4 m/S 719 mmHg 90%
    03:00 +8°C° 0.7 mm 4 m/S 719 mmHg 91%
    04:00 +8°C° 0.7 mm 4 m/S 719 mmHg 91%
    05:00 +8°C° 0.7 mm 4 m/S 719 mmHg 92%
    06:00 +8°C° 0.7 mm 4 m/S 719 mmHg 91%
    07:00 +8°C° 0.7 mm 4 m/S 719 mmHg 91%
    08:00 +8°C° 0.7 mm 4 m/S 720 mmHg 91%
    09:00 +9°C° 0.4 mm 3 m/S 720 mmHg 90%
    10:00 +9°C° 0.4 mm 3 m/S 720 mmHg 90%
    11:00 +9°C° 0.4 mm 3 m/S 720 mmHg 89%
    12:00 +10°C° 0.2 mm 3 m/S 719 mmHg 87%
    13:00 +10°C° 0.2 mm 3 m/S 719 mmHg 86%
    14:00 +10°C° 0.2 mm 3 m/S 718 mmHg 84%
    15:00 +10°C° 0.1 mm 2 m/S 718 mmHg 84%
    16:00 +10°C° 0.1 mm 2 m/S 718 mmHg 84%
    17:00 +10°C° 0.1 mm 2 m/S 718 mmHg 84%
    18:00 +10°C° 0.1 mm 2 m/S 718 mmHg 83%
    19:00 +10°C° 0.1 mm 2 m/S 718 mmHg 82%
    20:00 +11°C° 0.1 mm 1 m/S 719 mmHg 81%
    21:00 +10°C° 0 mm 1 m/S 719 mmHg 82%
    22:00 +10°C° 0 mm 1 m/S 718 mmHg 83%
    23:00 +9°C° 0 mm 1 m/S 718 mmHg 84%

    5 Juni, Freitag

    Zeit Temperatur Niederschläge Wind Luftdruck Luftfeuchtigkeit
    00:00 +9°C° 0 mm 1 m/S 718 mmHg 84%
    01:00 +9°C° 0 mm 1 m/S 718 mmHg 85%
    02:00 +8°C° 0 mm 1 m/S 718 mmHg 86%
    03:00 +8°C° 0 mm 1 m/S 717 mmHg 82%
    04:00 +8°C° 0 mm 1 m/S 717 mmHg 79%
    05:00 +8°C° 0 mm 1 m/S 717 mmHg 76%
    06:00 +9°C° 0 mm 1 m/S 717 mmHg 73%
    07:00 +9°C° 0 mm 1 m/S 717 mmHg 70%
    08:00 +9°C° 0 mm 1 m/S 718 mmHg 68%
    09:00 +12°C° 0 mm 1 m/S 718 mmHg 58%
    10:00 +14°C° 0 mm 1 m/S 717 mmHg 49%
    11:00 +15°C° 0 mm 0 m/S 717 mmHg 40%
    12:00 +18°C° 0 mm 1 m/S 717 mmHg 37%
    13:00 +19°C° 0 mm 1 m/S 716 mmHg 34%
    14:00 +20°C° 0 mm 1 m/S 715 mmHg 32%
    15:00 +20°C° 0 mm 1 m/S 715 mmHg 35%
    16:00 +19°C° 0 mm 1 m/S 715 mmHg 38%
    17:00 +19°C° 0 mm 1 m/S 715 mmHg 41%
    18:00 +16°C° 0 mm 1 m/S 715 mmHg 45%
    19:00 +14°C° 0 mm 1 m/S 715 mmHg 48%
    20:00 +13°C° 0 mm 1 m/S 715 mmHg 52%
    21:00 +12°C° 0 mm 1 m/S 715 mmHg 52%
    22:00 +12°C° 0 mm 1 m/S 715 mmHg 52%
    23:00 +12°C° 0 mm 1 m/S 715 mmHg 52%

    6 Juni, Samstag

    Zeit Temperatur Niederschläge Wind Luftdruck Luftfeuchtigkeit
    00:00 +10°C° 0 mm 0 m/S 715 mmHg 53%
    01:00 +10°C° 0 mm 0 m/S 714 mmHg 54%
    02:00 +9°C° 0 mm 0 m/S 714 mmHg 55%
    03:00 +9°C° 0 mm 0 m/S 714 mmHg 55%
    04:00 +10°C° 0 mm 1 m/S 714 mmHg 55%
    05:00 +10°C° 0 mm 1 m/S 713 mmHg 55%
    06:00 +10°C° 0 mm 1 m/S 714 mmHg 53%
    07:00 +11°C° 0 mm 1 m/S 714 mmHg 50%
    08:00 +12°C° 0 mm 1 m/S 714 mmHg 48%
    09:00 +14°C° 0 mm 1 m/S 714 mmHg 41%
    10:00 +17°C° 0 mm 2 m/S 714 mmHg 35%
    11:00 +19°C° 0 mm 2 m/S 714 mmHg 28%
    12:00 +20°C° 0 mm 2 m/S 713 mmHg 27%
    13:00 +21°C° 0 mm 2 m/S 713 mmHg 26%
    14:00 +23°C° 0 mm 2 m/S 712 mmHg 24%
    15:00 +21°C° 0 mm 2 m/S 712 mmHg 28%
    16:00 +21°C° 0 mm 1 m/S 711 mmHg 32%
    17:00 +21°C° 0 mm 1 m/S 711 mmHg 35%
    18:00 +19°C° 0 mm 1 m/S 712 mmHg 37%
    19:00 +18°C° 0 mm 1 m/S 712 mmHg 39%
    20:00 +15°C° 0 mm 1 m/S 712 mmHg 41%
    21:00 +15°C° 0 mm 1 m/S 713 mmHg 44%
    22:00 +14°C° 0 mm 2 m/S 713 mmHg 47%
    23:00 +14°C° 0 mm 2 m/S 713 mmHg 49%
    Mehr zeigen